Home   Weather   Plymouth   Past weeks

Flag for United Kingdom Past Weather in Plymouth, England, United Kingdom — Yesterday and Last 2 Weeks

Now
46 °F

Partly sunny.


Feels Like: 44 °F
Forecast: 47 / 53 °F
Wind: 5 mph from Southeast

Location: Exeter Airport

Current Time: Apr 29, 2017 at 6:54:43 am

Latest Report: Apr 29, 2017 at 6:20 am


Visibility: N/A

Pressure: 29.95 "Hg

Humidity: 82%

Dew Point: 41 °F

Location of PlymouthLocation

Past Weather in Plymouth — Graph

°F

Plymouth Temperature Yesterday

Maximum temperature yesterday: 54 °F (at 12:50 pm)
Minimum temperature yesterday: 46 °F (at 12:20 am)
Average temperature yesterday: 50 °F

High & Low Weather Summary for the Past Weeks

 TemperatureHumidityPressure
High63 °F (Apr 22, 2:20 pm)100% (Apr 14, 5:50 am)30.63 "Hg (Apr 14, 5:50 am)
Low28 °F (Apr 27, 5:50 am)35% (Apr 18, 3:50 pm)29.95 "Hg (Apr 24, 5:50 pm)
Average49 °F73%30.26 "Hg
* Reported Apr 14 5:20 am — Apr 29 5:50 am, Plymouth, Weather by CustomWeather, © 2017

Note: Actual official high and low records may vary slightly from our data, if they occured in-between our weather recording intervals... More about our weather records

Advertising

Plymouth Weather History for the Previous 24 Hours

Scroll right to see more
 ConditionsComfort  
Time TempWeatherWind HumidityBarometerVisibility
5:50 am
Sat, Apr 29
45 °FPassing clouds.7 mph87%29.98 "HgN/A
1:50 am45 °FPassing clouds.1 mph81%30.01 "HgN/A
1:20 am45 °FPassing clouds.1 mph81%30.01 "HgN/A
12:20 am46 °FPassing clouds.5 mph76%30.04 "HgN/A
11:20 pm
Fri, Apr 28
46 °FPassing clouds.No wind71%30.04 "HgN/A
10:50 pm46 °FPassing clouds.1 mph71%30.04 "HgN/A
9:50 pm48 °FPassing clouds.1 mph71%30.04 "HgN/A
9:20 pm48 °FOvercast.1 mph71%30.04 "HgN/A
8:50 pm48 °FOvercast.3 mph71%30.04 "HgN/A
8:20 pm48 °FOvercast.3 mph71%30.04 "HgN/A
7:50 pm50 °FPartly sunny.5 mph67%30.04 "HgN/A
7:20 pm50 °FPartly sunny.7 mph67%30.04 "HgN/A
6:50 pm50 °FPartly sunny.8 mph67%30.04 "HgN/A
6:20 pm50 °FPartly sunny.9 mph67%30.04 "HgN/A
5:50 pm50 °FPartly sunny.9 mph67%30.04 "HgN/A
5:20 pm52 °FPartly sunny.9 mph62%30.04 "HgN/A
4:50 pm54 °FPartly sunny.9 mph58%30.04 "HgN/A
4:20 pm54 °FPartly sunny.7 mph58%30.04 "HgN/A
3:50 pm54 °FPartly sunny.7 mph58%30.04 "HgN/A
3:20 pm54 °FPartly sunny.8 mph63%30.07 "HgN/A
2:50 pm54 °FScattered clouds.9 mph58%30.07 "HgN/A
2:20 pm52 °FScattered clouds.8 mph67%30.07 "HgN/A
1:50 pm52 °FPartly sunny.9 mph67%30.07 "HgN/A
1:20 pm52 °FPartly sunny.9 mph67%30.07 "HgN/A
12:50 pm54 °FPartly sunny.7 mph63%30.07 "HgN/A
12:20 pm52 °FPartly sunny.9 mph67%30.07 "HgN/A
11:50 am52 °FPartly sunny.12 mph62%30.07 "HgN/A
11:20 am52 °FScattered clouds.9 mph67%30.07 "HgN/A
10:50 am50 °FScattered showers. Scattered clouds.12 mph71%30.07 "HgN/A
10:20 am52 °FScattered clouds.6 mph72%30.07 "HgN/A
9:50 am48 °FScattered showers. Scattered clouds.7 mph82%30.07 "HgN/A
8:50 am48 °FScattered showers. Scattered clouds.10 mph82%30.07 "HgN/A
8:20 am48 °FPassing clouds.8 mph82%30.07 "HgN/A
7:50 am46 °FPartly sunny.5 mph87%30.07 "HgN/A
7:20 am46 °FScattered clouds.5 mph87%30.07 "HgN/A
6:50 am46 °FPartly sunny.5 mph87%30.07 "HgN/A
Weather by CustomWeather, © 2017

See weather overviewHow to use our weather pages